,,,PA_Meas_PMT16A,,PR_Meas_QMR101_102,,RH_Meas_QMH101,,SR_Meas_QMS101,,TA_Meas_QMH101,,GenWind,,GenWind,
date,time,status,PA,status,PR,status,RH,status,SR,status,TA,status,DirAvg,status,SpdAvg,
2010-04-24, 00:00:04,VALID,1004.83,VALID,0,VALID,87.1752,VALID,0.100563,VALID,26.7199,VALID,354,VALID,1.03437,
2010-04-24, 00:01:04,VALID,1004.81,VALID,0,VALID,87.0303,VALID,0,VALID,26.7589,VALID,9,VALID,0.854688,
2010-04-24, 00:02:04,VALID,1004.83,VALID,0,VALID,87.0608,VALID,0,VALID,26.7804,VALID,25,VALID,0.433203,
2010-04-24, 00:03:04,VALID,1004.8,VALID,0,VALID,87.0913,VALID,0,VALID,26.7589,VALID,151,VALID,0.354688,
2010-04-24, 00:04:04,VALID,1004.78,VALID,0,VALID,87.1066,VALID,0,VALID,26.7783,VALID,21,VALID,1.02383,
2010-04-24, 00:05:04,VALID,1004.77,VALID,0,VALID,87.076,VALID,0,VALID,26.7783,VALID,354,VALID,0.804688,
2010-04-24, 00:06:04,VALID,1004.76,VALID,0,VALID,87.0455,VALID,0,VALID,26.7998,VALID,358,VALID,0.440625,
2010-04-24, 00:07:04,VALID,1004.78,VALID,0,VALID,87.0913,VALID,0,VALID,26.7978,VALID,358,VALID,0.689062,
2010-04-24, 00:08:04,VALID,1004.79,VALID,0,VALID,87.1447,VALID,0,VALID,26.7783,VALID,360,VALID,0.717969,
2010-04-24, 00:09:04,VALID,1004.79,VALID,0,VALID,87.0913,VALID,0,VALID,26.7998,VALID,19,VALID,0.716016,
2010-04-24, 00:10:04,VALID,1004.79,VALID,0,VALID,87.076,VALID,0,VALID,26.7783,VALID,27,VALID,0.624609,
2010-04-24, 00:11:04,VALID,1004.78,VALID,0,VALID,87.1218,VALID,0,VALID,26.7589,VALID,27,VALID,0.208594,
2010-04-24, 00:12:04,VALID,1004.8,VALID,0,VALID,87.3583,VALID,0,VALID,26.7609,VALID,360,VALID,0.975391,
2010-04-24, 00:13:04,VALID,1004.81,VALID,0,VALID,87.3888,VALID,0,VALID,26.7394,VALID,6,VALID,0.400781,
2010-04-24, 00:14:04,VALID,1004.8,VALID,0,VALID,87.3659,VALID,0,VALID,26.7394,VALID,6,VALID,0.426172,
2010-04-24, 00:15:04,VALID,1004.81,VALID,0,VALID,87.3965,VALID,0,VALID,26.7414,VALID,6,VALID,0.184766,
2010-04-24, 00:16:04,VALID,1004.78,VALID,0,VALID,87.3888,VALID,0,VALID,26.7004,VALID,6,VALID,0.159766,
2010-04-24, 00:17:04,VALID,1004.77,VALID,0,VALID,87.5261,VALID,0,VALID,26.7004,VALID,6,VALID,0.253125,
2010-04-24, 00:18:04,VALID,1004.78,VALID,0,VALID,87.5948,VALID,0,VALID,26.6809,VALID,357,VALID,0.371094,
2010-04-24, 00:19:04,VALID,1004.73,VALID,0,VALID,87.5414,VALID,0,VALID,26.7004,VALID,357,VALID,0.318359,
2010-04-24, 00:20:04,VALID,1004.69,VALID,0,VALID,87.5033,VALID,0,VALID,26.6614,VALID,357,VALID,0.0445312,
2010-04-24, 00:21:04,VALID,1004.63,VALID,0,VALID,87.7169,VALID,0,VALID,26.642,VALID,9,VALID,0.501172,
2010-04-24, 00:22:04,VALID,1004.63,VALID,0,VALID,87.8542,VALID,0,VALID,26.642,VALID,3,VALID,0.774219,
2010-04-24, 00:23:04,VALID,1004.61,VALID,0,VALID,87.9915,VALID,0,VALID,26.6635,VALID,7,VALID,0.398047,
2010-04-24, 00:24:04,VALID,1004.56,VALID,0,VALID,87.9228,VALID,0,VALID,26.683,VALID,300,VALID,0.746875,
2010-04-24, 00:25:04,VALID,1004.57,VALID,0,VALID,87.9762,VALID,0,VALID,26.7024,VALID,358,VALID,0.955859,
2010-04-24, 00:26:04,VALID,1004.56,VALID,0,VALID,87.9152,VALID,0,VALID,26.7004,VALID,6,VALID,1.11016,
2010-04-24, 00:27:04,VALID,1004.55,VALID,0,VALID,87.8542,VALID,0,VALID,26.7414,VALID,5,VALID,0.284766,
2010-04-24, 00:28:04,VALID,1004.54,VALID,0,VALID,87.7779,VALID,0,VALID,26.7414,VALID,4,VALID,0.982813,
2010-04-24, 00:29:04,VALID,1004.53,VALID,0,VALID,87.6329,VALID,0.100563,VALID,26.7609,VALID,14,VALID,0.494922,
2010-04-24, 00:30:04,VALID,1004.5,VALID,0,VALID,87.5643,VALID,0,VALID,26.7199,VALID,36,VALID,0.59375,
2010-04-24, 00:31:04,VALID,1004.44,VALID,0,VALID,87.6024,VALID,0,VALID,26.7004,VALID,1,VALID,0.369141,
2010-04-24, 00:32:04,VALID,1004.44,VALID,0,VALID,87.7169,VALID,0,VALID,26.7024,VALID,353,VALID,0.678125,
2010-04-24, 00:33:04,VALID,1004.46,VALID,0,VALID,87.6558,VALID,0,VALID,26.7024,VALID,8,VALID,0.83125,
2010-04-24, 00:34:04,VALID,1004.46,VALID,0,VALID,87.6635,VALID,0,VALID,26.683,VALID,23,VALID,0.941016,
2010-04-24, 00:35:04,VALID,1004.44,VALID,0,VALID,87.7398,VALID,0,VALID,26.6614,VALID,34,VALID,1.45586,
2010-04-24, 00:36:04,VALID,1004.42,VALID,0,VALID,87.6635,VALID,0,VALID,26.7414,VALID,18,VALID,1.33398,
2010-04-24, 00:37:04,VALID,1004.39,VALID,0,VALID,87.4422,VALID,0,VALID,26.7199,VALID,35,VALID,1.375,
2010-04-24, 00:38:04,VALID,1004.36,VALID,0,VALID,87.3202,VALID,0,VALID,26.7004,VALID,25,VALID,0.869922,
2010-04-24, 00:39:04,VALID,1004.32,VALID,0,VALID,87.5567,VALID,0.100563,VALID,26.7414,VALID,18,VALID,0.826563,
2010-04-24, 00:40:04,VALID,1004.32,VALID,0,VALID,87.5795,VALID,0,VALID,26.7199,VALID,56,VALID,0.680469,
2010-04-24, 00:41:04,VALID,1004.3,VALID,0,VALID,87.6482,VALID,0,VALID,26.7219,VALID,351,VALID,1.09766,
2010-04-24, 00:42:04,VALID,1004.23,VALID,0,VALID,87.6329,VALID,0.100563,VALID,26.7199,VALID,9,VALID,0.383984,
2010-04-24, 00:43:04,VALID,1004.2,VALID,0,VALID,87.6177,VALID,0,VALID,26.7004,VALID,4,VALID,0.375781,
2010-04-24, 00:44:04,VALID,1004.16,VALID,0,VALID,87.7703,VALID,0,VALID,26.7219,VALID,15,VALID,0.799219,
2010-04-24, 00:45:04,VALID,1004.15,VALID,0,VALID,87.755,VALID,0,VALID,26.7219,VALID,348,VALID,1.02383,
2010-04-24, 00:46:04,VALID,1004.13,VALID,0,VALID,87.7245,VALID,0,VALID,26.7219,VALID,7,VALID,0.791406,
2010-04-24, 00:47:04,VALID,1004.11,VALID,0,VALID,87.7398,VALID,0,VALID,26.7239,VALID,350,VALID,0.4125,
2010-04-24, 00:48:04,VALID,1004.09,VALID,0,VALID,87.8008,VALID,0,VALID,26.7219,VALID,10,VALID,1.00977,
2010-04-24, 00:49:04,VALID,1004.05,VALID,0,VALID,87.9228,VALID,0,VALID,26.7414,VALID,359,VALID,1.27461,
2010-04-24, 00:50:04,VALID,1004.03,VALID,0,VALID,87.8237,VALID,0,VALID,26.7609,VALID,360,VALID,0.997266,
2010-04-24, 00:51:04,VALID,1004.03,VALID,0,VALID,87.7092,VALID,0,VALID,26.7804,VALID,353,VALID,1.69922,
2010-04-24, 00:52:04,VALID,1003.98,VALID,0,VALID,87.5948,VALID,0,VALID,26.7998,VALID,9,VALID,0.242188,
2010-04-24, 00:53:04,VALID,1003.96,VALID,0,VALID,87.549,VALID,0,VALID,26.7998,VALID,8,VALID,0.44375,
2010-04-24, 00:54:04,VALID,1003.92,VALID,0,VALID,87.5643,VALID,0,VALID,26.8019,VALID,353,VALID,0.798828,
2010-04-24, 00:55:04,VALID,1003.94,VALID,0,VALID,87.6101,VALID,0,VALID,26.8019,VALID,360,VALID,0.396094,
2010-04-24, 00:56:04,VALID,1003.91,VALID,0,VALID,87.694,VALID,0,VALID,26.7824,VALID,359,VALID,0.715625,
2010-04-24, 00:57:04,VALID,1003.91,VALID,0,VALID,87.816,VALID,0,VALID,26.7609,VALID,11,VALID,0.36875,
2010-04-24, 00:58:04,VALID,1003.9,VALID,0,VALID,87.7932,VALID,0,VALID,26.7609,VALID,340,VALID,1.11914,
2010-04-24, 00:59:04,VALID,1003.91,VALID,0,VALID,87.755,VALID,0,VALID,26.7629,VALID,316,VALID,0.375391,
2010-04-24, 01:00:04,VALID,1003.92,VALID,0,VALID,87.816,VALID,0.100563,VALID,26.7609,VALID,354,VALID,0.45,
2010-04-24, 01:01:04,VALID,1003.89,VALID,0,VALID,87.7855,VALID,0,VALID,26.7199,VALID,354,VALID,0.207813,
2010-04-24, 01:02:04,VALID,1003.91,VALID,0,VALID,87.9152,VALID,0.100563,VALID,26.7219,VALID,343,VALID,0.45625,
2010-04-24, 01:03:04,VALID,1003.93,VALID,0,VALID,87.961,VALID,0,VALID,26.6809,VALID,343,VALID,0.335156,
2010-04-24, 01:04:04,VALID,1003.93,VALID,0,VALID,88.0373,VALID,0,VALID,26.683,VALID,343,VALID,0.212891,
2010-04-24, 01:05:04,VALID,1003.98,VALID,0,VALID,88.167,VALID,0,VALID,26.644,VALID,343,VALID,0.345703,
2010-04-24, 01:06:04,VALID,1003.99,VALID,0,VALID,88.2509,VALID,0,VALID,26.6245,VALID,341,VALID,0.381641,
2010-04-24, 01:07:04,VALID,1004,VALID,0,VALID,88.3653,VALID,0,VALID,26.603,VALID,332,VALID,0.379687,
2010-04-24, 01:08:04,VALID,1004.01,VALID,0,VALID,88.3729,VALID,0,VALID,26.5835,VALID,349,VALID,0.337891,
2010-04-24, 01:09:05,VALID,1003.98,VALID,0,VALID,88.4187,VALID,0,VALID,26.605,VALID,349,VALID,0.375,
2010-04-24, 01:10:05,VALID,1003.99,VALID,0,VALID,88.4798,VALID,0,VALID,26.5855,VALID,349,VALID,0.324219,
2010-04-24, 01:11:05,VALID,1003.97,VALID,0,VALID,88.3577,VALID,0,VALID,26.5641,VALID,51,VALID,0.771484,
2010-04-24, 01:12:05,VALID,1003.94,VALID,0,VALID,88.022,VALID,0,VALID,26.603,VALID,81,VALID,0.785937,
2010-04-24, 01:13:05,VALID,1003.96,VALID,0,VALID,87.8237,VALID,0,VALID,26.5835,VALID,69,VALID,0.450781,
2010-04-24, 01:14:05,VALID,1003.95,VALID,0,VALID,87.8237,VALID,0,VALID,26.5446,VALID,24,VALID,0.455859,
2010-04-24, 01:15:05,VALID,1003.96,VALID,0,VALID,87.961,VALID,0,VALID,26.5251,VALID,24,VALID,0.381641,
2010-04-24, 01:16:05,VALID,1003.93,VALID,0,VALID,88.0678,VALID,0,VALID,26.5466,VALID,353,VALID,0.235156,
2010-04-24, 01:17:05,VALID,1003.91,VALID,0,VALID,88.1212,VALID,0,VALID,26.5056,VALID,353,VALID,0.00195313,
2010-04-24, 01:18:05,VALID,1003.87,VALID,0,VALID,88.4264,VALID,0,VALID,26.5291,VALID,276,VALID,1.14102,
2010-04-24, 01:19:05,VALID,1003.84,VALID,0,VALID,88.3958,VALID,0,VALID,26.5271,VALID,288,VALID,0.925781,
2010-04-24, 01:20:05,VALID,1003.83,VALID,0,VALID,88.1822,VALID,0,VALID,26.5835,VALID,296,VALID,0.325781,
2010-04-24, 01:21:05,VALID,1003.83,VALID,0,VALID,88.0907,VALID,0,VALID,26.5835,VALID,250,VALID,0.414453,
2010-04-24, 01:22:05,VALID,1003.8,VALID,0,VALID,88.228,VALID,0,VALID,26.605,VALID,228,VALID,0.05,
2010-04-24, 01:23:05,VALID,1003.8,VALID,0,VALID,88.289,VALID,0.100563,VALID,26.5641,VALID,228,VALID,0.00117188,
2010-04-24, 01:24:05,VALID,1003.79,VALID,0,VALID,88.3653,VALID,0,VALID,26.5466,VALID,228,VALID,0.00664063,
2010-04-24, 01:25:05,VALID,1003.79,VALID,0,VALID,88.3653,VALID,0,VALID,26.5076,VALID,228,VALID,0.297656,
2010-04-24, 01:26:05,VALID,1003.78,VALID,0,VALID,88.4721,VALID,0.100563,VALID,26.4472,VALID,228,VALID,0.188672,
2010-04-24, 01:27:05,VALID,1003.78,VALID,0,VALID,88.5789,VALID,0.100563,VALID,26.4297,VALID,228,VALID,0.0488281,
2010-04-24, 01:28:05,VALID,1003.7,VALID,0,VALID,88.7162,VALID,0,VALID,26.3498,VALID,228,VALID,0.216797,
2010-04-24, 01:29:05,VALID,1003.69,VALID,0,VALID,88.8383,VALID,0,VALID,26.3128,VALID,228,VALID,0,
2010-04-24, 01:30:05,VALID,1003.67,VALID,0,VALID,89.0901,VALID,0,VALID,26.2739,VALID,228,VALID,0,
2010-04-24, 01:31:05,VALID,1003.65,VALID,0,VALID,89.3113,VALID,0,VALID,26.2349,VALID,228,VALID,0.01875,
2010-04-24, 01:32:05,VALID,1003.63,VALID,0,VALID,89.5859,VALID,0,VALID,26.155,VALID,228,VALID,0.172266,
2010-04-24, 01:33:05,VALID,1003.58,VALID,0,VALID,89.8377,VALID,0,VALID,26.1375,VALID,228,VALID,0.195703,
2010-04-24, 01:34:05,VALID,1003.55,VALID,0,VALID,90.0971,VALID,0,VALID,26.0771,VALID,228,VALID,0.238672,
2010-04-24, 01:35:05,VALID,1003.53,VALID,0,VALID,90.5243,VALID,0,VALID,26.0596,VALID,228,VALID,0.246094,
2010-04-24, 01:36:05,VALID,1003.53,VALID,0,VALID,90.6235,VALID,0,VALID,25.9817,VALID,228,VALID,0.296094,
2010-04-24, 01:37:05,VALID,1003.55,VALID,0,VALID,90.7837,VALID,0,VALID,25.8823,VALID,228,VALID,0.463672,
2010-04-24, 01:38:05,VALID,1003.55,VALID,0,VALID,91.7449,VALID,0,VALID,25.785,VALID,228,VALID,0,
2010-04-24, 01:39:05,VALID,1003.57,VALID,0,VALID,92.4468,VALID,0,VALID,25.746,VALID,230,VALID,0.232812,
2010-04-24, 01:40:05,VALID,1003.54,VALID,0,VALID,92.7672,VALID,0,VALID,25.7265,VALID,230,VALID,0.184375,
2010-04-24, 01:41:05,VALID,1003.59,VALID,0,VALID,92.9579,VALID,0,VALID,25.7071,VALID,235,VALID,0.209766,
2010-04-24, 01:42:05,VALID,1003.61,VALID,0,VALID,93.4538,VALID,0,VALID,25.7071,VALID,316,VALID,0.303516,
2010-04-24, 01:43:05,VALID,1003.66,VALID,0,VALID,93.4919,VALID,0,VALID,25.748,VALID,316,VALID,0,
2010-04-24, 01:44:05,VALID,1003.64,VALID,0,VALID,93.408,VALID,0,VALID,25.7265,VALID,316,VALID,0.195313,
2010-04-24, 01:45:05,VALID,1003.61,VALID,0,VALID,93.469,VALID,0,VALID,25.7285,VALID,316,VALID,0.314844,
2010-04-24, 01:46:05,VALID,1003.62,VALID,0,VALID,93.5835,VALID,0,VALID,25.6895,VALID,316,VALID,0.370703,
2010-04-24, 01:47:05,VALID,1003.64,VALID,0,VALID,93.6292,VALID,0,VALID,25.67,VALID,39,VALID,0.428906,
2010-04-24, 01:48:05,VALID,1003.64,VALID,0,VALID,93.6598,VALID,0,VALID,25.6506,VALID,42,VALID,0,
2010-04-24, 01:49:05,VALID,1003.63,VALID,0,VALID,93.7284,VALID,0,VALID,25.6311,VALID,42,VALID,0,
2010-04-24, 01:50:05,VALID,1003.61,VALID,0,VALID,93.7589,VALID,0,VALID,25.5902,VALID,42,VALID,0,
2010-04-24, 01:51:05,VALID,1003.62,VALID,0,VALID,93.82,VALID,0,VALID,25.5707,VALID,42,VALID,0,
2010-04-24, 01:52:05,VALID,1003.6,VALID,0,VALID,93.8123,VALID,0,VALID,25.5123,VALID,42,VALID,0.355469,
2010-04-24, 01:53:05,VALID,1003.57,VALID,0,VALID,93.8123,VALID,0,VALID,25.4928,VALID,42,VALID,0.179297,
2010-04-24, 01:54:05,VALID,1003.54,VALID,0,VALID,93.9191,VALID,0,VALID,25.4753,VALID,42,VALID,0.281641,
2010-04-24, 01:55:05,VALID,1003.52,VALID,0,VALID,94.0488,VALID,0,VALID,25.413,VALID,42,VALID,0.154297,
2010-04-24, 01:56:05,VALID,1003.47,VALID,0,VALID,94.2777,VALID,0,VALID,25.4539,VALID,42,VALID,0,
2010-04-24, 01:57:05,VALID,1003.46,VALID,0,VALID,94.3387,VALID,0,VALID,25.4539,VALID,41,VALID,0.30625,
2010-04-24, 01:58:05,VALID,1003.4,VALID,0,VALID,94.4074,VALID,0.100563,VALID,25.5337,VALID,28,VALID,0.258594,
2010-04-24, 01:59:05,VALID,1003.36,VALID,0,VALID,94.415,VALID,0,VALID,25.5123,VALID,28,VALID,0.303906,
2010-04-24, 02:00:05,VALID,1003.35,VALID,0,VALID,94.4532,VALID,0,VALID,25.5707,VALID,5,VALID,0.835156,
2010-04-24, 02:01:05,VALID,1003.33,VALID,0,VALID,94.4227,VALID,0,VALID,25.6292,VALID,3,VALID,0.325,
2010-04-24, 02:02:05,VALID,1003.33,VALID,0,VALID,94.2624,VALID,0,VALID,25.6876,VALID,344,VALID,0.335938,
2010-04-24, 02:03:05,VALID,1003.33,VALID,0,VALID,94.0183,VALID,0.100563,VALID,25.7265,VALID,344,VALID,0.495703,
2010-04-24, 02:04:05,VALID,1003.29,VALID,0,VALID,93.7666,VALID,0,VALID,25.748,VALID,354,VALID,0.766016,
2010-04-24, 02:05:05,VALID,1003.29,VALID,0,VALID,93.7132,VALID,0,VALID,25.8044,VALID,1,VALID,1.86992,
2010-04-24, 02:06:05,VALID,1003.3,VALID,0,VALID,93.4614,VALID,0,VALID,25.9232,VALID,12,VALID,0.670703,
2010-04-24, 02:07:05,VALID,1003.3,VALID,0,VALID,92.874,VALID,0,VALID,25.9622,VALID,27,VALID,0.425,
2010-04-24, 02:08:05,VALID,1003.29,VALID,0,VALID,92.6451,VALID,0,VALID,26.0012,VALID,11,VALID,0.214062,
2010-04-24, 02:09:05,VALID,1003.3,VALID,0,VALID,92.401,VALID,0,VALID,26.0187,VALID,11,VALID,0.200391,
2010-04-24, 02:10:05,VALID,1003.28,VALID,0,VALID,92.1264,VALID,0,VALID,26.0791,VALID,353,VALID,0.322656,
2010-04-24, 02:11:05,VALID,1003.32,VALID,0,VALID,91.5008,VALID,0,VALID,26.116,VALID,334,VALID,0.378516,
2010-04-24, 02:12:05,VALID,1003.27,VALID,0,VALID,90.4633,VALID,0,VALID,26.2154,VALID,348,VALID,0.879297,
2010-04-24, 02:13:05,VALID,1003.29,VALID,0,VALID,89.6088,VALID,0,VALID,26.2524,VALID,343,VALID,0.381641,
2010-04-24, 02:14:05,VALID,1003.28,VALID,0,VALID,89.029,VALID,0,VALID,26.3303,VALID,339,VALID,0.46875,
2010-04-24, 02:15:05,VALID,1003.28,VALID,0,VALID,88.7086,VALID,0,VALID,26.3498,VALID,339,VALID,0,
2010-04-24, 02:16:05,VALID,1003.3,VALID,0,VALID,88.4874,VALID,0,VALID,26.3713,VALID,339,VALID,0,
2010-04-24, 02:17:05,VALID,1003.33,VALID,0,VALID,88.434,VALID,0,VALID,26.3713,VALID,339,VALID,0,
2010-04-24, 02:18:05,VALID,1003.34,VALID,0,VALID,88.4874,VALID,0,VALID,26.3713,VALID,342,VALID,0.258203,
2010-04-24, 02:19:05,VALID,1003.36,VALID,0,VALID,88.6323,VALID,0,VALID,26.3498,VALID,334,VALID,0.379297,
2010-04-24, 02:20:05,VALID,1003.37,VALID,0,VALID,88.64,VALID,0,VALID,26.3693,VALID,294,VALID,0.288281,
2010-04-24, 02:21:05,VALID,1003.4,VALID,0,VALID,88.6476,VALID,0,VALID,26.3498,VALID,291,VALID,0.0394531,
2010-04-24, 02:22:05,VALID,1003.38,VALID,0,VALID,88.6552,VALID,0,VALID,26.3713,VALID,291,VALID,0.0765625,
2010-04-24, 02:23:05,VALID,1003.4,VALID,0,VALID,88.7315,VALID,0,VALID,26.3518,VALID,292,VALID,0.707812,
2010-04-24, 02:24:05,VALID,1003.43,VALID,0,VALID,88.8459,VALID,0,VALID,26.3303,VALID,242,VALID,0.420703,
2010-04-24, 02:25:05,VALID,1003.43,VALID,0,VALID,88.8917,VALID,0.100563,VALID,26.3108,VALID,262,VALID,0.274219,
2010-04-24, 02:26:05,VALID,1003.39,VALID,0,VALID,88.907,VALID,0,VALID,26.2913,VALID,262,VALID,0.173438,
2010-04-24, 02:27:05,VALID,1003.41,VALID,0,VALID,88.9222,VALID,0,VALID,26.2739,VALID,262,VALID,0.264453,
2010-04-24, 02:28:05,VALID,1003.4,VALID,0,VALID,88.9985,VALID,0,VALID,26.2154,VALID,262,VALID,0.000390625,
2010-04-24, 02:29:05,VALID,1003.41,VALID,0,VALID,89.0595,VALID,0,VALID,26.1765,VALID,262,VALID,0,
2010-04-24, 02:30:05,VALID,1003.43,VALID,0,VALID,89.1282,VALID,0,VALID,26.118,VALID,262,VALID,0,
2010-04-24, 02:31:05,VALID,1003.44,VALID,0,VALID,89.441,VALID,0,VALID,26.0985,VALID,262,VALID,0,
2010-04-24, 02:32:05,VALID,1003.43,VALID,0,VALID,89.6927,VALID,0,VALID,26.0401,VALID,262,VALID,0,
2010-04-24, 02:33:05,VALID,1003.44,VALID,0,VALID,90.3336,VALID,0,VALID,25.9817,VALID,262,VALID,0,
2010-04-24, 02:34:05,VALID,1003.47,VALID,0,VALID,91.1422,VALID,0,VALID,25.9213,VALID,262,VALID,0,
2010-04-24, 02:35:05,VALID,1003.49,VALID,0,VALID,91.5923,VALID,0,VALID,25.8823,VALID,262,VALID,0.328906,
2010-04-24, 02:36:05,VALID,1003.48,VALID,0,VALID,92.0958,VALID,0,VALID,25.8259,VALID,262,VALID,0.351172,
2010-04-24, 02:37:05,VALID,1003.49,VALID,0,VALID,92.3171,VALID,0,VALID,25.785,VALID,262,VALID,0.444531,
2010-04-24, 02:38:05,VALID,1003.51,VALID,0,VALID,92.4773,VALID,0,VALID,25.7285,VALID,262,VALID,0.440234,
2010-04-24, 02:39:05,VALID,1003.54,VALID,0,VALID,92.7443,VALID,0,VALID,25.67,VALID,324,VALID,0.360938,
2010-04-24, 02:40:05,VALID,1003.53,VALID,0,VALID,92.9884,VALID,0,VALID,25.5921,VALID,324,VALID,0.385156,
2010-04-24, 02:41:05,VALID,1003.58,VALID,0,VALID,93.1868,VALID,0,VALID,25.5142,VALID,324,VALID,0.201953,
2010-04-24, 02:42:05,VALID,1003.56,VALID,0,VALID,93.3775,VALID,0,VALID,25.4539,VALID,324,VALID,0.152344,
2010-04-24, 02:43:05,VALID,1003.57,VALID,0,VALID,93.6674,VALID,0,VALID,25.4558,VALID,324,VALID,0.123438,
2010-04-24, 02:44:05,VALID,1003.56,VALID,0,VALID,93.8123,VALID,0,VALID,25.4149,VALID,324,VALID,0,
2010-04-24, 02:45:05,VALID,1003.56,VALID,0,VALID,93.9039,VALID,0,VALID,25.4169,VALID,324,VALID,0,
2010-04-24, 02:46:05,VALID,1003.58,VALID,0,VALID,94.0259,VALID,0,VALID,25.3974,VALID,324,VALID,0,
2010-04-24, 02:47:05,VALID,1003.57,VALID,0,VALID,94.0946,VALID,0,VALID,25.3565,VALID,324,VALID,0,
2010-04-24, 02:48:05,VALID,1003.6,VALID,0,VALID,94.1862,VALID,0,VALID,25.3779,VALID,324,VALID,0,
2010-04-24, 02:49:05,VALID,1003.6,VALID,0,VALID,94.3769,VALID,0.100563,VALID,25.3779,VALID,324,VALID,0,
2010-04-24, 02:50:05,VALID,1003.58,VALID,0,VALID,94.415,VALID,0.100563,VALID,25.3974,VALID,324,VALID,0,
2010-04-24, 02:51:05,VALID,1003.56,VALID,0,VALID,94.4989,VALID,0,VALID,25.3565,VALID,324,VALID,0.102734,
2010-04-24, 02:52:05,VALID,1003.55,VALID,0,VALID,94.5371,VALID,0,VALID,25.337,VALID,324,VALID,0.28125,
2010-04-24, 02:53:05,VALID,1003.55,VALID,0,VALID,94.5523,VALID,0,VALID,25.339,VALID,324,VALID,0.390234,
2010-04-24, 02:54:05,VALID,1003.52,VALID,0,VALID,94.5523,VALID,0.100563,VALID,25.2981,VALID,324,VALID,0.254297,
2010-04-24, 02:55:05,VALID,1003.55,VALID,0,VALID,94.6134,VALID,0,VALID,25.2981,VALID,324,VALID,0.173438,
2010-04-24, 02:56:05,VALID,1003.51,VALID,0,VALID,94.6668,VALID,0,VALID,25.2592,VALID,324,VALID,0.176953,
2010-04-24, 02:57:05,VALID,1003.49,VALID,0,VALID,94.682,VALID,0,VALID,25.2592,VALID,357,VALID,0.497266,
2010-04-24, 02:58:05,VALID,1003.51,VALID,0,VALID,94.6897,VALID,0,VALID,25.2611,VALID,8,VALID,0.541797,
2010-04-24, 02:59:05,VALID,1003.45,VALID,0,VALID,94.7507,VALID,0,VALID,25.2416,VALID,24,VALID,0.743359,
2010-04-24, 03:00:05,VALID,1003.42,VALID,0,VALID,94.8194,VALID,0,VALID,25.2221,VALID,24,VALID,0.53125,
2010-04-24, 03:01:05,VALID,1003.39,VALID,0,VALID,94.9033,VALID,0,VALID,25.2027,VALID,24,VALID,0.403516,
2010-04-24, 03:02:05,VALID,1003.37,VALID,0,VALID,95.0101,VALID,0,VALID,25.2202,VALID,24,VALID,0.395703,
2010-04-24, 03:03:05,VALID,1003.34,VALID,0,VALID,95.1016,VALID,0.100563,VALID,25.2202,VALID,24,VALID,0.431641,
2010-04-24, 03:04:05,VALID,1003.31,VALID,0,VALID,95.155,VALID,0,VALID,25.2202,VALID,24,VALID,0.160547,
2010-04-24, 03:05:05,VALID,1003.31,VALID,0,VALID,95.2313,VALID,0,VALID,25.2592,VALID,360,VALID,0.414844,
2010-04-24, 03:06:05,VALID,1003.28,VALID,0,VALID,95.2466,VALID,0,VALID,25.2981,VALID,360,VALID,0.173438,
2010-04-24, 03:07:05,VALID,1003.27,VALID,0,VALID,95.1779,VALID,0,VALID,25.2981,VALID,360,VALID,0,
2010-04-24, 03:08:05,VALID,1003.24,VALID,0,VALID,95.1169,VALID,0,VALID,25.2981,VALID,360,VALID,0,
2010-04-24, 03:09:05,VALID,1003.23,VALID,0,VALID,95.0177,VALID,0,VALID,25.2981,VALID,360,VALID,0,
2010-04-24, 03:10:05,VALID,1003.24,VALID,0,VALID,94.9414,VALID,0,VALID,25.2981,VALID,360,VALID,0,
2010-04-24, 03:11:05,VALID,1003.23,VALID,0,VALID,94.8804,VALID,0,VALID,25.2981,VALID,360,VALID,0,
2010-04-24, 03:12:05,VALID,1003.23,VALID,0,VALID,94.8499,VALID,0,VALID,25.3195,VALID,360,VALID,0.212891,
2010-04-24, 03:13:05,VALID,1003.26,VALID,0,VALID,94.827,VALID,0,VALID,25.2981,VALID,360,VALID,0.209766,
2010-04-24, 03:14:05,VALID,1003.28,VALID,0,VALID,94.827,VALID,0.100563,VALID,25.2981,VALID,360,VALID,0.155078,
2010-04-24, 03:15:05,VALID,1003.3,VALID,0,VALID,94.888,VALID,0,VALID,25.3,VALID,360,VALID,0.116406,
2010-04-24, 03:16:05,VALID,1003.31,VALID,0,VALID,94.9033,VALID,0,VALID,25.3195,VALID,360,VALID,0,
2010-04-24, 03:17:05,VALID,1003.3,VALID,0,VALID,94.8651,VALID,0,VALID,25.3195,VALID,360,VALID,0,
2010-04-24, 03:18:05,VALID,1003.32,VALID,0,VALID,94.827,VALID,0,VALID,25.3409,VALID,360,VALID,0,
2010-04-24, 03:19:05,VALID,1003.33,VALID,0,VALID,94.8575,VALID,0,VALID,25.3195,VALID,360,VALID,0.178125,
2010-04-24, 03:20:05,VALID,1003.38,VALID,0,VALID,94.9033,VALID,0,VALID,25.3195,VALID,360,VALID,0.150781,
2010-04-24, 03:21:05,VALID,1003.39,VALID,0,VALID,94.9643,VALID,0,VALID,25.3,VALID,360,VALID,0.158984,
2010-04-24, 03:22:05,VALID,1003.42,VALID,0,VALID,94.9948,VALID,0,VALID,25.2806,VALID,360,VALID,0.402344,
2010-04-24, 03:23:05,VALID,1003.42,VALID,0,VALID,95.0253,VALID,0,VALID,25.2592,VALID,360,VALID,0.296094,
2010-04-24, 03:24:05,VALID,1003.44,VALID,0,VALID,95.0558,VALID,0,VALID,25.2611,VALID,360,VALID,0.203516,
2010-04-24, 03:25:05,VALID,1003.45,VALID,0,VALID,95.0482,VALID,0,VALID,25.2221,VALID,360,VALID,0.321875,
2010-04-24, 03:26:05,VALID,1003.49,VALID,0,VALID,95.0253,VALID,0,VALID,25.2027,VALID,360,VALID,0.284766,
2010-04-24, 03:27:05,VALID,1003.48,VALID,0,VALID,95.0177,VALID,0,VALID,25.1637,VALID,360,VALID,0.267188,
2010-04-24, 03:28:05,VALID,1003.5,VALID,0,VALID,95.0482,VALID,0,VALID,25.1442,VALID,360,VALID,0,
2010-04-24, 03:29:05,VALID,1003.52,VALID,0,VALID,95.0787,VALID,0,VALID,25.1442,VALID,360,VALID,0,
2010-04-24, 03:30:05,VALID,1003.51,VALID,0,VALID,95.1321,VALID,0,VALID,25.1637,VALID,360,VALID,0,
2010-04-24, 03:31:05,VALID,1003.53,VALID,0,VALID,95.1703,VALID,0,VALID,25.1442,VALID,360,VALID,0.158203,
2010-04-24, 03:32:05,VALID,1003.58,VALID,0,VALID,95.2008,VALID,0.100563,VALID,25.082,VALID,360,VALID,0.275781,
2010-04-24, 03:33:05,VALID,1003.59,VALID,0,VALID,95.2695,VALID,0,VALID,25.1034,VALID,360,VALID,0.194141,
2010-04-24, 03:34:05,VALID,1003.57,VALID,0,VALID,95.3,VALID,0,VALID,25.0839,VALID,360,VALID,0.220703,
2010-04-24, 03:35:05,VALID,1003.6,VALID,0,VALID,95.361,VALID,0,VALID,25.0858,VALID,360,VALID,0.205078,
2010-04-24, 03:36:05,VALID,1003.63,VALID,0,VALID,95.3839,VALID,0,VALID,25.045,VALID,360,VALID,0,
2010-04-24, 03:37:05,VALID,1003.63,VALID,0,VALID,95.422,VALID,0,VALID,25.0663,VALID,360,VALID,0,
2010-04-24, 03:38:05,VALID,1003.64,VALID,0,VALID,95.4449,VALID,0,VALID,25.0663,VALID,360,VALID,0,
2010-04-24, 03:39:05,VALID,1003.68,VALID,0,VALID,95.4678,VALID,0,VALID,25.0469,VALID,360,VALID,0,
2010-04-24, 03:40:05,VALID,1003.66,VALID,0,VALID,95.506,VALID,0,VALID,25.045,VALID,360,VALID,0,
2010-04-24, 03:41:05,VALID,1003.64,VALID,0,VALID,95.4983,VALID,0,VALID,25.0255,VALID,360,VALID,0.215234,
2010-04-24, 03:42:05,VALID,1003.64,VALID,0,VALID,95.506,VALID,0,VALID,25.0255,VALID,360,VALID,0.476172,
2010-04-24, 03:43:05,VALID,1003.64,VALID,0,VALID,95.5212,VALID,0,VALID,25.006,VALID,360,VALID,0.563281,
2010-04-24, 03:44:05,VALID,1003.64,VALID,0,VALID,95.5441,VALID,0,VALID,25.006,VALID,360,VALID,0.630078,
2010-04-24, 03:45:05,VALID,1003.66,VALID,0,VALID,95.5288,VALID,0,VALID,24.9671,VALID,360,VALID,0.671875,
2010-04-24, 03:46:05,VALID,1003.69,VALID,0,VALID,95.4983,VALID,0,VALID,24.9282,VALID,360,VALID,0.455078,
2010-04-24, 03:47:05,VALID,1003.69,VALID,0,VALID,95.5365,VALID,0.100563,VALID,24.9495,VALID,360,VALID,0.342187,